RH
30 24 21 19 16 17 16 15 14 12 13 13 13 12 11 11 12 10 9 9 8 8 8 8 8 8 11 32 16 15 16 19 20 23 27 54 67 66 57 61 72 60 51 45 43 46 40 37 51
30 24 20 17 16 15 17 17 14 15 14 14 13 13 13 12 12 11 10 10 9 8 7 7 7 8 24 51 63 49 55 22 16 19 25 28 29 58 78 100 100 77 51 54 56 54 50 57 55
30 21 18 16 16 20 17 16 15 14 14 13 13 13 14 13 12 11 11 8 8 7 7 9 12 8 14 64 90 70 99 32 12 15 21 30 31 41 87 100 88 64 73 82 95 90 98 95 69
28 23 20 20 19 19 17 16 16 16 16 16 15 13 13 12 11 10 9 8 8 8 8 8 47 96 100 95 100 97 100 58 26 12 16 28 34 35 39 52 82 100 100 100 79 79 72 30 31
30 22 21 22 21 18 18 19 19 17 17 15 14 14 13 12 11 10 8 7 9 8 9 18 96 92 99 96 99 96 100 62 17 12 16 27 37 27 53 81 100 100 94 86 46 31 32 28 27
27 27 25 23 24 21 20 23 20 20 18 16 16 16 15 14 10 8 8 9 14 10 28 67 100 100 99 92 100 100 100 88 19 14 17 32 27 48 65 100 100 100 77 57 35 32 31 19 19
30 34 30 30 26 22 24 28 23 26 19 19 18 18 16 12 10 10 14 21 24 23 86 100 96 80 70 100 92 100 98 100 27 19 22 26 34 80 100 100 100 98 73 52 54 38 32 25 31
30 30 39 36 30 27 35 30 29 30 25 24 19 18 15 12 14 24 40 43 35 40 96 100 100 100 99 100 94 100 100 88 88 18 18 25 74 100 100 100 100 92 70 62 47 39 29 19 19
31 34 42 35 35 39 37 27 36 34 28 29 19 19 15 18 32 82 86 86 64 66 79 100 100 96 100 79 100 100 95 80 100 54 36 81 100 100 100 100 98 76 51 54 47 36 30 22 20
39 29 37 36 40 42 38 34 44 31 36 35 22 21 17 31 75 99 99 100 88 80 100 100 100 94 100 100 100 100 100 87 100 100 100 100 100 100 100 81 83 68 66 55 42 43 43 44 26
47 32 38 30 39 42 40 36 46 37 32 39 25 22 19 67 100 88 100 100 88 99 100 100 100 100 100 100 98 98 99 99 100 100 100 100 100 91 67 91 98 85 70 54 52 55 42 46 46
53 46 42 39 40 45 43 32 34 44 30 43 29 28 20 76 100 100 94 100 98 100 100 100 100 100 87 96 100 95 95 99 100 100 100 100 86 75 58 71 78 96 70 62 48 45 54 64 73
56 61 52 52 44 49 49 37 30 35 30 39 29 37 19 84 100 100 100 100 84 96 100 100 100 100 100 100 96 72 100 100 90 100 100 100 72 82 71 83 71 97 76 81 95 50 96 78 76
74 66 63 50 48 46 50 45 39 38 33 34 29 40 21 51 100 100 100 100 100 98 100 100 100 100 100 100 100 100 100 100 96 90 100 100 100 88 62 57 61 99 100 69 78 98 96 100 90
82 75 66 57 63 51 53 51 47 46 32 33 32 32 28 21 70 100 100 100 100 100 100 100 100 100 100 100 100 100 91 94 100 99 100 100 100 100 73 87 72 99 45 76 96 100 78 56 52
100 89 74 57 77 66 62 56 54 49 40 36 39 36 28 21 26 77 100 99 100 100 100 91 100 100 100 100 100 100 100 100 100 100 100 100 100 100 100 99 78 100 100 100 100 99 84 84 60
100 91 74 92 86 75 76 72 61 44 50 48 49 37 29 22 21 38 88 96 100 100 94 100 98 98 100 96 76 89 92 81 70 91 94 97 100 100 100 94 99 100 100 100 100 100 79 65 96
100 93 95 100 94 87 99 92 68 41 48 74 57 47 41 25 20 23 52 90 91 97 100 100 100 97 100 97 98 94 95 100 71 69 66 100 100 100 100 99 100 100 100 100 100 94 97 66 70
100 100 100 100 77 96 88 100 72 42 47 77 66 49 39 24 22 21 30 54 79 78 100 92 91 86 100 80 100 77 78 72 73 80 81 86 100 100 100 100 100 100 100 100 90 63 100 82 51
100 100 100 100 88 94 100 100 69 50 48 85 65 51 38 30 20 21 32 32 54 63 81 100 100 100 100 100 100 100 100 96 75 73 80 85 100 100 100 100 89 94 93 92 100 95 69 54 78
100 99 100 100 91 100 100 100 72 57 62 67 82 59 50 36 31 25 29 32 32 59 71 78 99 100 100 100 100 100 93 100 100 95 82 88 91 83 92 94 64 62 67 63 55 63 57 96 100
100 100 94 100 76 91 100 100 75 64 64 66 86 62 60 41 33 32 25 31 30 48 58 62 70 96 100 100 100 100 100 100 100 100 100 100 74 70 71 70 78 81 86 94 87 100 100 100 100
100 99 86 100 100 100 100 100 82 71 68 88 92 66 73 54 38 45 25 35 31 61 62 58 76 74 95 94 100 100 100 100 100 100 100 100 100 100 89 98 100 100 100 100 100 100 100 100 100
100 100 98 100 89 100 100 100 91 71 79 86 93 68 86 68 47 64 30 26 38 49 58 54 54 59 68 84 82 88 100 100 100 100 100 100 100 100 100 100 100 100 100 100 100 100 100 100 100
100 100 100 100 94 100 100 83 84 74 91 99 92 60 91 76 56 63 56 25 26 32 37 38 46 53 57 62 80 75 79 92 100 100 100 100 100 100 100 100 100 100 100 100 100 100 100 100 100
93 100 96 96 99 100 96 80 99 77 100 100 85 54 77 90 64 60 64 42 27 23 24 26 29 37 42 46 45 58 61 58 60 79 100 100 100 100 100 100 100 100 100 100 100 100 100 100 100
92 100 100 88 99 100 100 96 100 81 96 100 100 78 98 95 74 82 73 53 36 28 24 25 26 25 26 33 50 54 57 80 90 84 82 88 100 100 100 100 100 100 100 100 100 100 100 100 96
98 100 100 71 96 92 100 100 100 100 98 100 100 96 95 100 74 66 75 72 44 35 32 30 26 22 22 26 34 72 74 70 91 98 100 100 100 100 100 100 100 100 100 100 97 95 82 75 71
90 95 92 92 100 100 100 100 100 100 97 97 100 89 72 100 82 62 90 84 54 43 47 45 38 29 24 21 29 56 100 100 100 100 100 98 100 100 100 98 87 78 67 67 65 60 59 65 94
100 96 100 100 100 100 77 100 100 100 100 96 83 64 77 100 88 67 75 100 96 68 54 52 60 39 33 26 27 34 45 73 91 100 100 98 94 95 76 61 57 56 50 51 50 55 83 100 99
Wind_Speed
67 64 58 55 54 55 57 57 57 56 52 52 52 54 55 56 55 60 61 61 59 58 57 53 52 47 40 43 47 48 51 52 52 56 60 65 66 66 62 57 62 68 63 59 59 58 62 62 65
59 55 52 48 49 50 47 45 48 46 46 48 46 48 51 53 55 56 60 58 58 58 53 47 40 32 32 37 27 35 40 45 50 49 52 57 59 60 59 46 53 54 50 50 50 51 51 55 59
50 45 44 45 43 41 42 40 39 38 39 42 44 47 51 54 54 53 53 53 53 54 45 35 26 19 21 10 7 22 26 36 46 50 46 51 52 52 54 53 48 40 39 38 38 39 39 48 55
44 44 42 40 34 30 32 34 34 35 36 39 44 48 51 55 52 53 50 49 47 45 33 24 13 17 15 10 15 13 38 35 37 46 48 49 48 49 39 34 35 34 31 30 41 41 31 22 25
42 39 35 29 26 28 29 30 32 40 41 43 46 49 54 53 49 47 46 44 40 32 25 26 30 30 23 18 17 26 34 35 31 39 45 46 42 39 32 32 28 26 31 30 17 17 14 16 24
37 36 26 27 26 29 29 32 36 40 43 42 46 48 48 50 48 43 40 34 27 23 24 38 41 44 49 28 16 31 38 30 29 34 40 40 42 36 32 27 28 30 27 20 15 7 10 15 16
35 32 27 29 29 30 30 37 36 39 40 44 47 49 51 49 42 35 25 23 17 18 41 41 45 45 35 32 25 31 32 29 27 31 40 36 38 33 32 29 27 27 25 20 17 11 7 6 8
33 34 29 29 33 32 37 39 36 39 39 45 45 48 49 43 32 23 16 13 12 23 45 37 40 46 41 38 49 54 28 18 17 25 36 34 33 34 28 32 31 28 28 22 13 8 5 13 4
32 31 29 28 34 33 33 35 38 38 38 46 45 47 48 36 23 6 8 8 10 17 28 38 39 46 47 51 44 41 28 20 16 20 29 32 30 29 32 33 33 28 23 19 14 13 10 11 12
33 31 31 29 33 33 33 33 36 37 36 46 45 45 43 25 12 4 6 10 6 14 26 33 45 49 47 47 39 40 36 29 17 24 28 34 35 36 34 31 23 27 27 18 19 14 18 18 19
37 33 31 31 31 32 34 33 34 37 37 44 45 40 40 15 3 9 4 13 11 16 27 33 45 55 51 45 45 47 52 30 21 24 34 32 32 30 26 26 29 32 23 20 15 18 20 20 21
39 37 34 33 34 33 32 33 34 38 35 43 44 43 38 11 9 5 10 12 17 16 23 31 34 45 45 44 44 44 37 29 30 28 34 33 25 21 20 21 23 33 17 24 23 23 22 18 16
42 40 37 33 35 34 32 32 35 33 32 39 38 41 34 13 18 9 16 6 13 25 22 29 35 44 47 46 41 45 42 34 37 37 34 28 24 26 25 18 23 29 24 24 23 26 21 22 21
43 42 39 37 36 34 31 30 35 32 31 33 35 35 30 11 21 16 12 13 9 19 24 34 32 42 50 40 43 50 39 41 45 39 32 29 29 30 29 24 18 26 25 32 29 25 24 18 24
44 44 43 38 40 40 35 31 32 31 29 26 34 32 26 22 19 27 22 17 18 15 15 29 35 45 42 38 42 40 42 41 39 38 34 34 34 34 33 32 30 25 34 29 31 30 37 36 38
47 43 44 38 42 40 37 30 32 31 26 26 32 37 30 21 15 24 27 24 15 26 16 29 31 34 31 38 37 46 45 46 42 42 38 35 31 35 34 36 29 25 28 32 41 41 37 35 47
50 49 44 41 41 41 41 34 30 32 25 27 30 35 33 23 17 16 31 36 29 16 30 20 29 31 37 39 45 37 33 38 41 39 39 36 39 42 42 40 32 31 38 39 46 41 45 55 48
53 46 43 47 38 37 41 36 31 32 28 27 29 33 39 25 23 8 24 37 40 30 21 25 31 34 35 41 39 38 33 32 39 40 38 40 41 42 43 39 43 41 44 48 46 50 49 56 58
50 46 47 52 37 38 39 40 32 31 27 27 29 37 35 25 24 11 8 29 41 43 28 30 32 36 40 41 42 41 43 44 36 35 37 43 46 44 45 46 42 51 57 51 52 59 53 57 63
50 46 48 52 38 33 41 38 31 30 28 25 30 35 31 26 22 17 11 13 32 47 45 35 35 31 39 48 44 42 39 38 36 34 34 43 49 49 50 52 52 47 52 52 52 55 62 66 67
55 49 49 49 37 31 37 38 32 28 27 25 29 31 31 31 27 29 17 12 17 39 46 50 40 38 37 40 47 49 47 45 40 40 38 38 46 54 53 53 56 58 59 60 63 66 67 63 57
51 54 48 46 41 37 36 40 34 27 29 26 24 29 28 32 27 26 29 14 12 20 39 47 49 42 35 36 37 34 33 35 35 42 44 47 48 48 50 50 50 54 58 61 61 63 62 60 63
50 53 48 44 42 38 39 39 36 30 29 26 24 30 29 27 29 25 27 16 10 12 19 38 37 40 38 33 41 43 38 37 35 38 41 44 46 48 49 52 54 56 58 61 62 60 62 62 58
55 51 50 48 43 37 44 40 40 31 28 28 26 31 29 28 27 20 22 19 9 7 10 14 29 46 43 36 35 43 45 45 46 47 49 52 52 55 56 56 59 62 62 62 62 61 57 53 51
59 54 56 54 46 46 48 42 43 32 26 30 29 30 29 26 24 18 18 15 13 5 5 9 14 20 31 38 40 39 43 47 49 52 55 54 56 57 59 59 62 64 67 65 58 52 50 49 53
61 58 58 56 46 49 48 35 42 35 30 33 32 29 30 22 22 18 13 17 15 14 10 7 4 14 21 25 30 35 40 42 47 50 49 53 56 58 61 62 57 55 51 48 49 49 53 54 54
59 56 59 57 46 48 43 36 43 38 30 34 36 32 31 23 15 18 16 12 14 10 10 10 12 14 15 23 24 22 22 25 29 33 37 37 37 37 36 38 42 44 47 49 50 50 52 52 53
59 57 55 52 44 46 47 42 40 40 33 35 37 35 32 28 14 18 22 13 13 11 10 13 15 15 17 17 24 24 22 21 24 25 24 25 29 32 35 37 40 44 47 49 50 52 55 55 53
59 57 55 52 46 48 45 43 42 47 38 35 35 36 36 28 20 17 24 18 14 12 10 13 16 16 17 13 16 26 25 24 25 25 27 28 33 36 40 43 46 48 49 49 50 51 50 46 41
63 57 58 53 51 52 49 47 44 47 41 41 38 38 39 32 24 21 22 23 19 17 15 14 15 13 15 14 7 11 24 28 30 32 34 36 39 41 41 42 43 41 40 40 38 33 34 37 33
Wind_Direction
294 297 297 297 295 291 291 290 290 290 290 289 288 286 287 285 284 283 285 285 285 282 278 276 273 269 265 262 259 258 255 248 244 241 240 240 242 246 248 249 251 249 251 254 253 255 255 255 253
295 297 298 296 294 291 290 289 290 293 291 288 288 286 286 286 284 284 285 288 285 281 280 278 272 264 245 257 270 260 271 266 249 240 236 239 241 244 245 241 241 252 253 249 249 252 252 257 255
296 300 298 295 296 292 293 294 294 292 289 289 291 289 288 287 287 289 289 288 284 282 280 277 276 257 235 221 324 273 305 270 254 245 232 233 238 240 244 244 254 249 244 233 238 242 246 252 260
300 300 298 297 297 294 295 295 295 297 302 301 298 295 293 292 294 291 290 287 286 281 280 260 182 145 151 107 303 334 296 286 258 245 233 229 232 236 240 236 233 228 236 222 239 249 249 249 258
303 303 299 294 294 289 288 298 306 310 309 308 304 299 297 300 297 293 290 288 283 281 267 211 176 188 203 208 243 271 285 295 264 241 231 225 224 228 218 220 210 215 225 229 192 214 230 259 270
302 300 295 289 296 295 302 309 310 314 312 315 313 310 311 308 305 298 293 286 273 263 203 178 185 189 197 179 143 264 276 302 268 237 223 219 219 213 216 199 215 216 198 178 184 204 264 274 267
300 295 286 295 298 293 309 318 315 315 316 325 321 317 319 313 307 301 292 270 251 213 184 186 196 195 179 153 149 201 271 292 273 230 221 211 210 195 195 196 209 202 185 185 216 254 235 263 240
296 294 284 293 296 297 306 310 315 316 321 326 324 322 322 317 309 297 263 253 215 188 188 190 196 200 170 153 169 209 242 257 273 230 213 201 192 193 200 200 199 187 200 206 215 196 254 220 164
288 286 282 292 296 305 310 310 318 316 326 335 327 329 326 320 306 296 262 234 187 186 179 193 186 175 173 169 179 188 206 204 236 214 206 193 194 191 194 188 193 202 206 208 201 204 235 242 276
279 281 279 290 292 302 309 314 316 322 330 337 330 331 330 315 293 228 322 215 200 185 182 179 176 172 175 177 176 173 185 210 194 191 185 174 174 183 188 192 200 205 206 202 189 233 259 287 307
270 276 276 285 290 301 313 315 312 318 330 336 331 334 332 298 276 287 197 234 199 183 184 185 181 176 181 185 177 177 182 189 188 183 177 180 183 184 187 193 196 209 207 192 240 254 278 295 308
268 271 274 278 284 295 308 316 314 316 329 334 331 333 337 256 217 286 185 271 235 199 177 188 185 185 184 189 182 184 176 184 186 194 195 192 193 198 208 197 214 213 217 220 271 281 289 289 295
265 270 271 271 277 285 296 310 317 320 328 334 335 336 338 239 224 226 215 252 260 200 191 179 186 187 187 188 190 185 184 192 189 191 194 209 211 205 207 218 225 224 236 246 272 289 273 282 285
263 268 271 269 275 283 290 306 314 317 329 335 338 333 335 311 235 249 234 208 245 221 206 192 194 194 186 194 193 197 208 198 188 198 204 217 223 222 232 233 235 237 221 270 281 275 263 270 282
258 264 268 273 272 276 283 299 313 316 326 341 346 337 335 336 241 233 229 212 215 220 235 211 194 189 201 195 195 198 199 186 191 205 217 222 232 231 240 246 258 243 270 266 269 266 274 278 289
259 260 265 271 270 275 282 292 307 311 321 330 337 336 329 335 325 240 222 214 204 215 225 221 214 208 208 204 194 192 197 202 212 211 218 223 228 232 238 248 263 257 245 268 274 272 274 274 289
256 259 265 266 268 276 277 286 300 304 308 314 332 332 328 340 330 253 227 221 222 215 219 223 223 215 210 206 207 212 221 221 217 222 226 225 233 237 243 248 238 254 261 261 260 260 271 284 292
251 259 260 259 265 274 275 278 292 299 301 306 320 323 328 332 335 283 235 226 223 219 201 215 221 219 219 214 220 227 218 221 230 229 234 223 227 236 245 250 244 249 249 261 257 275 282 282 283
252 252 255 259 264 268 268 277 283 293 295 301 308 314 328 330 338 337 266 232 226 221 200 207 222 225 216 223 227 227 231 231 228 221 229 223 215 229 235 239 242 245 251 257 270 273 279 281 287
250 249 251 256 258 263 268 270 275 287 288 294 302 313 329 330 345 353 332 256 227 227 220 203 204 209 218 221 221 232 230 239 238 233 225 226 221 225 233 238 241 247 255 264 270 273 279 281 282
246 246 245 252 253 255 261 264 267 279 280 286 298 314 331 324 348 5 351 289 246 220 225 221 216 210 214 222 228 231 231 237 234 236 236 229 230 230 232 242 247 254 258 265 269 270 277 277 275
241 244 243 245 252 257 253 257 264 272 275 282 292 306 326 326 339 359 1 310 253 228 223 227 227 224 220 222 224 225 231 233 241 243 242 241 236 239 247 249 255 259 260 261 266 267 270 272 278
239 244 241 246 249 254 247 252 262 268 271 273 283 298 313 329 337 353 358 328 256 224 228 226 224 227 226 225 230 230 229 231 232 238 240 239 243 245 250 254 255 259 260 262 262 265 270 276 283
239 244 241 243 244 250 246 249 263 266 265 268 274 292 304 315 333 342 356 346 282 228 226 216 225 229 232 235 227 226 230 235 236 233 236 236 239 242 248 251 253 252 255 257 262 267 274 275 277
235 238 239 242 244 247 238 251 265 259 262 257 267 287 297 309 323 321 331 349 13 358 255 241 231 222 228 233 232 224 223 224 230 234 235 238 242 244 246 248 250 252 256 263 267 269 273 274 273
232 236 239 242 240 243 249 259 257 255 258 255 267 280 289 292 311 302 312 322 333 349 22 41 260 243 238 233 231 229 230 232 234 236 236 238 240 245 246 253 259 263 264 261 263 265 267 269 273
234 235 240 240 229 239 244 247 255 251 252 254 257 269 280 285 287 286 285 294 313 324 339 358 357 343 267 241 233 237 234 227 226 231 237 240 245 250 252 253 253 255 257 259 260 265 269 275 278
232 235 236 237 237 234 236 239 245 253 249 255 253 257 265 274 278 275 274 263 276 297 305 320 320 331 344 252 238 233 234 234 232 233 237 242 248 253 255 255 255 257 261 264 269 273 275 277 283
233 236 236 234 235 231 232 233 242 253 248 248 251 252 261 263 270 267 269 265 258 270 288 309 317 329 339 3 246 234 235 240 241 246 251 256 254 255 256 259 263 266 269 270 272 276 278 279 275
233 232 231 229 222 227 231 228 236 249 252 250 251 247 255 250 256 248 256 267 258 259 273 287 299 319 333 343 357 257 247 248 250 251 254 256 258 261 265 267 271 275 277 278 278 274 273 269 273